Year,Month,Day,Hour,Minute,Value (Times are PST for temperature in C)
2020,04,23,00,00,5.90
2020,04,23,00,01,5.90
2020,04,23,00,02,5.90
2020,04,23,00,03,5.90
2020,04,23,00,04,5.90
2020,04,23,00,05,5.90
2020,04,23,00,06,5.90
2020,04,23,00,07,5.90
2020,04,23,00,08,5.90
2020,04,23,00,09,5.90
2020,04,23,00,10,5.90
2020,04,23,00,11,5.90
2020,04,23,00,12,5.90
2020,04,23,00,13,5.90
2020,04,23,00,14,5.90
2020,04,23,00,15,5.90
2020,04,23,00,16,5.90
2020,04,23,00,17,5.90
2020,04,23,00,18,5.90
2020,04,23,00,19,5.90
2020,04,23,00,20,5.90
2020,04,23,00,21,5.90
2020,04,23,00,22,5.90
2020,04,23,00,23,5.90
2020,04,23,00,24,5.90
2020,04,23,00,25,5.90
2020,04,23,00,26,5.90
2020,04,23,00,27,5.90
2020,04,23,00,28,5.90
2020,04,23,00,29,5.90
2020,04,23,00,30,5.90
2020,04,23,00,31,5.90
2020,04,23,00,32,5.90
2020,04,23,00,33,5.90
2020,04,23,00,34,5.90
2020,04,23,00,35,6.00
2020,04,23,00,36,6.00
2020,04,23,00,37,6.00
2020,04,23,00,38,6.00
2020,04,23,00,39,6.00
2020,04,23,00,40,6.10
2020,04,23,00,41,6.10
2020,04,23,00,42,6.10
2020,04,23,00,43,6.10
2020,04,23,00,44,6.10
2020,04,23,00,45,6.10
2020,04,23,00,46,6.10
2020,04,23,00,47,6.10
2020,04,23,00,48,6.00
2020,04,23,00,49,6.00
2020,04,23,00,50,6.00
2020,04,23,00,51,6.00
2020,04,23,00,52,6.00
2020,04,23,00,53,6.00
2020,04,23,00,54,6.00
2020,04,23,00,55,6.00
2020,04,23,00,56,6.00
2020,04,23,00,57,6.00
2020,04,23,00,58,6.00
2020,04,23,00,59,6.00
2020,04,23,01,00,6.00
2020,04,23,01,01,6.00
2020,04,23,01,02,6.10
2020,04,23,01,03,6.10
2020,04,23,01,04,6.10
2020,04,23,01,05,6.10
2020,04,23,01,06,6.00
2020,04,23,01,07,6.00
2020,04,23,01,08,6.00
2020,04,23,01,09,6.00
2020,04,23,01,10,6.00
2020,04,23,01,11,5.90
2020,04,23,01,12,5.90
2020,04,23,01,13,5.90
2020,04,23,01,14,5.90
2020,04,23,01,15,5.90
2020,04,23,01,16,5.90
2020,04,23,01,17,5.90
2020,04,23,01,18,5.90
2020,04,23,01,19,5.90
2020,04,23,01,20,5.80
2020,04,23,01,21,5.80
2020,04,23,01,22,5.80
2020,04,23,01,23,5.80
2020,04,23,01,24,5.80
2020,04,23,01,25,5.80
2020,04,23,01,26,5.90
2020,04,23,01,27,5.90
2020,04,23,01,28,5.90
2020,04,23,01,29,5.90
2020,04,23,01,30,5.90
2020,04,23,01,31,5.90
2020,04,23,01,32,5.90
2020,04,23,01,33,5.90
2020,04,23,01,34,5.90
2020,04,23,01,35,5.90
2020,04,23,01,36,5.90
2020,04,23,01,37,5.90
2020,04,23,01,38,5.90
2020,04,23,01,39,5.90
2020,04,23,01,40,5.90
2020,04,23,01,41,5.90
2020,04,23,01,42,5.90
2020,04,23,01,43,5.90
2020,04,23,01,44,5.90
2020,04,23,01,45,5.90
2020,04,23,01,46,5.90
2020,04,23,01,47,5.90
2020,04,23,01,48,5.90
2020,04,23,01,49,5.90
2020,04,23,01,50,5.90
2020,04,23,01,51,5.90
2020,04,23,01,52,5.90
2020,04,23,01,53,5.90
2020,04,23,01,54,5.90
2020,04,23,01,55,5.90
2020,04,23,01,56,5.90
2020,04,23,01,57,5.90
2020,04,23,01,58,5.90
2020,04,23,01,59,5.90
2020,04,23,02,00,5.90
2020,04,23,02,01,5.90
2020,04,23,02,02,5.90
2020,04,23,02,03,5.90
2020,04,23,02,04,5.90
2020,04,23,02,05,5.90
2020,04,23,02,06,5.90
2020,04,23,02,07,5.90
2020,04,23,02,08,5.90
2020,04,23,02,09,5.90
2020,04,23,02,10,5.90
2020,04,23,02,11,5.90
2020,04,23,02,12,5.90
2020,04,23,02,13,5.90
2020,04,23,02,14,5.80
2020,04,23,02,15,5.90
2020,04,23,02,16,5.90
2020,04,23,02,17,5.90
2020,04,23,02,18,5.90
2020,04,23,02,19,5.90
2020,04,23,02,20,5.90
2020,04,23,02,21,5.90
2020,04,23,02,22,6.00
2020,04,23,02,23,6.00
2020,04,23,02,24,6.10
2020,04,23,02,25,6.20
2020,04,23,02,26,6.20
2020,04,23,02,27,6.30
2020,04,23,02,28,6.30
2020,04,23,02,29,6.30
2020,04,23,02,30,6.30
2020,04,23,02,31,6.30
2020,04,23,02,32,6.30
2020,04,23,02,33,6.30
2020,04,23,02,34,6.30
2020,04,23,02,35,6.30
2020,04,23,02,36,6.30
2020,04,23,02,37,6.40
2020,04,23,02,38,6.30
2020,04,23,02,39,6.40
2020,04,23,02,40,6.40
2020,04,23,02,41,6.40
2020,04,23,02,42,6.30
2020,04,23,02,43,6.40
2020,04,23,02,44,6.40
2020,04,23,02,45,6.40
2020,04,23,02,46,6.40
2020,04,23,02,47,6.40
2020,04,23,02,48,6.40
2020,04,23,02,49,6.40
2020,04,23,02,50,6.40
2020,04,23,02,51,6.40
2020,04,23,02,52,6.40
2020,04,23,02,53,6.40
2020,04,23,02,54,6.40
2020,04,23,02,55,6.40
2020,04,23,02,56,6.40
2020,04,23,02,57,6.40
2020,04,23,02,58,6.40
2020,04,23,02,59,6.40
2020,04,23,03,00,6.40
2020,04,23,03,01,6.40
2020,04,23,03,02,6.40
2020,04,23,03,03,6.40
2020,04,23,03,04,6.40
2020,04,23,03,05,6.40
2020,04,23,03,06,6.40
2020,04,23,03,07,6.40
2020,04,23,03,08,6.40
2020,04,23,03,09,6.40
2020,04,23,03,10,6.40
2020,04,23,03,11,6.40
2020,04,23,03,12,6.40
2020,04,23,03,13,6.40
2020,04,23,03,14,6.40
2020,04,23,03,15,6.40
2020,04,23,03,16,6.40
2020,04,23,03,17,6.50
2020,04,23,03,18,6.50
2020,04,23,03,19,6.50
2020,04,23,03,20,6.50
2020,04,23,03,21,6.50
2020,04,23,03,22,6.60
2020,04,23,03,23,6.60
2020,04,23,03,24,6.60
2020,04,23,03,25,6.60
2020,04,23,03,26,6.70
2020,04,23,03,27,6.70
2020,04,23,03,28,6.70
2020,04,23,03,29,6.80
2020,04,23,03,30,6.80
2020,04,23,03,31,6.80
2020,04,23,03,32,6.80
2020,04,23,03,33,6.80
2020,04,23,03,34,6.80
2020,04,23,03,35,6.80
2020,04,23,03,36,6.80
2020,04,23,03,37,6.80
2020,04,23,03,38,6.80
2020,04,23,03,39,6.90
2020,04,23,03,40,6.90
2020,04,23,03,41,6.90
2020,04,23,03,42,6.90
2020,04,23,03,43,6.90
2020,04,23,03,44,6.90
2020,04,23,03,45,6.90
2020,04,23,03,46,6.90
2020,04,23,03,47,6.90
2020,04,23,03,48,7.00
2020,04,23,03,49,7.00
2020,04,23,03,50,7.00
2020,04,23,03,51,7.00
2020,04,23,03,52,7.00
2020,04,23,03,53,7.00
2020,04,23,03,54,7.00
2020,04,23,03,55,7.00
2020,04,23,03,56,7.10
2020,04,23,03,57,7.10
2020,04,23,03,58,7.10
2020,04,23,03,59,7.10
2020,04,23,04,00,7.10
2020,04,23,04,01,7.10
2020,04,23,04,02,7.10
2020,04,23,04,03,7.10
2020,04,23,04,04,7.10
2020,04,23,04,05,7.10
2020,04,23,04,06,7.10
2020,04,23,04,07,7.10
2020,04,23,04,08,7.10
2020,04,23,04,09,7.20
2020,04,23,04,10,7.20
2020,04,23,04,11,7.20
2020,04,23,04,12,7.20
2020,04,23,04,13,7.20
2020,04,23,04,14,7.20
2020,04,23,04,15,7.20
2020,04,23,04,16,7.20
2020,04,23,04,17,7.20
2020,04,23,04,18,7.20
2020,04,23,04,19,7.20
2020,04,23,04,20,7.20
2020,04,23,04,21,7.20
2020,04,23,04,22,7.20
2020,04,23,04,23,7.20
2020,04,23,04,24,7.20
2020,04,23,04,25,7.20
2020,04,23,04,26,7.20
2020,04,23,04,27,7.20
2020,04,23,04,28,7.20
2020,04,23,04,29,7.20
2020,04,23,04,30,7.20
2020,04,23,04,31,7.20
2020,04,23,04,32,7.20
2020,04,23,04,33,7.20
2020,04,23,04,34,7.20
2020,04,23,04,35,7.20
2020,04,23,04,36,7.20
2020,04,23,04,37,7.20
2020,04,23,04,38,7.20
2020,04,23,04,39,7.20
2020,04,23,04,40,7.20
2020,04,23,04,41,7.20
2020,04,23,04,42,7.20
2020,04,23,04,43,7.20
2020,04,23,04,44,7.20
2020,04,23,04,45,7.20
2020,04,23,04,46,7.20
2020,04,23,04,47,7.20
2020,04,23,04,48,7.20
2020,04,23,04,49,7.20
2020,04,23,04,50,7.20
2020,04,23,04,51,7.20
2020,04,23,04,52,7.20
2020,04,23,04,53,7.20
2020,04,23,04,54,7.20
2020,04,23,04,55,7.20
2020,04,23,04,56,7.20
2020,04,23,04,57,7.20
2020,04,23,04,58,7.20
2020,04,23,04,59,7.20
2020,04,23,05,00,7.20
2020,04,23,05,01,7.20
2020,04,23,05,02,7.20
2020,04,23,05,03,7.20
2020,04,23,05,04,7.20
2020,04,23,05,05,7.20
2020,04,23,05,06,7.20
2020,04,23,05,07,7.20
2020,04,23,05,08,7.20
2020,04,23,05,09,7.10
2020,04,23,05,10,7.10
2020,04,23,05,11,7.10
2020,04,23,05,12,7.10
2020,04,23,05,13,7.10
2020,04,23,05,14,7.00
2020,04,23,05,15,7.00
2020,04,23,05,16,7.00
2020,04,23,05,17,7.00
2020,04,23,05,18,6.90
2020,04,23,05,19,6.90
2020,04,23,05,20,6.90
2020,04,23,05,21,6.90
2020,04,23,05,22,6.90
2020,04,23,05,23,6.90
2020,04,23,05,24,6.80
2020,04,23,05,25,6.80
2020,04,23,05,26,6.80
2020,04,23,05,27,6.70
2020,04,23,05,28,6.70
2020,04,23,05,29,6.70
2020,04,23,05,30,6.70
2020,04,23,05,31,6.70
2020,04,23,05,32,6.70
2020,04,23,05,33,6.70
2020,04,23,05,34,6.70
2020,04,23,05,35,6.70
2020,04,23,05,36,6.70
2020,04,23,05,37,6.70
2020,04,23,05,38,6.70
2020,04,23,05,39,6.70
2020,04,23,05,40,6.70
2020,04,23,05,41,6.70
2020,04,23,05,42,6.70
2020,04,23,05,43,6.70
2020,04,23,05,44,6.70
2020,04,23,05,45,6.70
2020,04,23,05,46,6.70
2020,04,23,05,47,6.70
2020,04,23,05,48,6.70
2020,04,23,05,49,6.70
2020,04,23,05,50,6.70
2020,04,23,05,51,6.70
2020,04,23,05,52,6.70
2020,04,23,05,53,6.70
2020,04,23,05,54,6.80
2020,04,23,05,55,6.70
2020,04,23,05,56,6.80
2020,04,23,05,57,6.80
2020,04,23,05,58,6.80
2020,04,23,05,59,6.80
2020,04,23,06,00,6.80
2020,04,23,06,01,6.80
2020,04,23,06,02,6.80
2020,04,23,06,03,6.80
2020,04,23,06,04,6.80
2020,04,23,06,05,6.80
2020,04,23,06,06,6.80
2020,04,23,06,07,6.90
2020,04,23,06,08,6.90
2020,04,23,06,09,6.90
2020,04,23,06,10,6.90
2020,04,23,06,11,6.90
2020,04,23,06,12,6.90
2020,04,23,06,13,6.90
2020,04,23,06,14,6.90
2020,04,23,06,15,6.90
2020,04,23,06,16,7.00
2020,04,23,06,17,7.00
2020,04,23,06,18,7.00
2020,04,23,06,19,7.00
2020,04,23,06,20,7.00
2020,04,23,06,21,7.00
2020,04,23,06,22,7.00
2020,04,23,06,23,7.00
2020,04,23,06,24,7.10
2020,04,23,06,25,7.10
2020,04,23,06,26,7.10
2020,04,23,06,27,7.10
2020,04,23,06,28,7.10
2020,04,23,06,29,7.10
2020,04,23,06,30,7.10
2020,04,23,06,31,7.10
2020,04,23,06,32,7.20
2020,04,23,06,33,7.20
2020,04,23,06,34,7.20
2020,04,23,06,35,7.20
2020,04,23,06,36,7.30
2020,04,23,06,37,7.30
2020,04,23,06,38,7.30
2020,04,23,06,39,7.40
2020,04,23,06,40,7.40
2020,04,23,06,41,7.40
2020,04,23,06,42,7.50
2020,04,23,06,43,7.50
2020,04,23,06,44,7.50
2020,04,23,06,45,7.60
2020,04,23,06,46,7.60
2020,04,23,06,47,7.60
2020,04,23,06,48,7.60
2020,04,23,06,49,7.70
2020,04,23,06,50,7.70
2020,04,23,06,51,7.70
2020,04,23,06,52,7.70
2020,04,23,06,53,7.70
2020,04,23,06,54,7.70
2020,04,23,06,55,7.80
2020,04,23,06,56,7.80
2020,04,23,06,57,7.80
2020,04,23,06,58,7.80
2020,04,23,06,59,7.90
2020,04,23,07,00,7.90
2020,04,23,07,01,7.90
2020,04,23,07,02,7.90
2020,04,23,07,03,8.00
2020,04,23,07,04,8.00
2020,04,23,07,05,8.00
2020,04,23,07,06,8.10
2020,04,23,07,07,8.10
2020,04,23,07,08,8.10
2020,04,23,07,09,8.10
2020,04,23,07,10,8.20
2020,04,23,07,11,8.20
2020,04,23,07,12,8.20
2020,04,23,07,13,8.20
2020,04,23,07,14,8.30
2020,04,23,07,15,8.30
2020,04,23,07,16,8.30
2020,04,23,07,17,8.30
2020,04,23,07,18,8.30
2020,04,23,07,19,8.40
2020,04,23,07,20,8.40
2020,04,23,07,21,8.40
2020,04,23,07,22,8.40
2020,04,23,07,23,8.40
2020,04,23,07,24,8.40
2020,04,23,07,25,8.50
2020,04,23,07,26,8.50
2020,04,23,07,27,8.50
2020,04,23,07,28,8.60
2020,04,23,07,29,8.60
2020,04,23,07,30,8.60
2020,04,23,07,31,8.60
2020,04,23,07,32,8.60
2020,04,23,07,33,8.70
2020,04,23,07,34,8.70
2020,04,23,07,35,8.70
2020,04,23,07,36,8.70
2020,04,23,07,37,8.70
2020,04,23,07,38,8.70
2020,04,23,07,39,8.80
2020,04,23,07,40,8.80
2020,04,23,07,41,8.80
2020,04,23,07,42,8.80
2020,04,23,07,43,8.80
2020,04,23,07,44,8.80
2020,04,23,07,45,8.80
2020,04,23,07,46,8.90
2020,04,23,07,47,8.90
2020,04,23,07,48,8.90
2020,04,23,07,49,8.90
2020,04,23,07,50,9.00
2020,04,23,07,51,9.00
2020,04,23,07,52,9.00
2020,04,23,07,53,9.10
2020,04,23,07,54,9.10
2020,04,23,07,55,9.10
2020,04,23,07,56,9.10
2020,04,23,07,57,9.10
2020,04,23,07,58,9.20
2020,04,23,07,59,9.20
2020,04,23,08,00,9.20
2020,04,23,08,01,9.20
2020,04,23,08,02,9.20
2020,04,23,08,03,9.30
2020,04,23,08,04,9.30
2020,04,23,08,05,9.30
2020,04,23,08,06,9.30
2020,04,23,08,07,9.30
2020,04,23,08,08,9.40
2020,04,23,08,09,9.40
2020,04,23,08,10,9.40
2020,04,23,08,11,9.40
2020,04,23,08,12,9.50
2020,04,23,08,13,9.50
2020,04,23,08,14,9.60
2020,04,23,08,15,9.60
2020,04,23,08,16,9.60
2020,04,23,08,17,9.60
2020,04,23,08,18,9.60
2020,04,23,08,19,9.70
2020,04,23,08,20,9.70
2020,04,23,08,21,9.70
2020,04,23,08,22,9.70
2020,04,23,08,23,9.70
2020,04,23,08,24,9.80
2020,04,23,08,25,9.80
2020,04,23,08,26,9.80
2020,04,23,08,27,9.80
2020,04,23,08,28,9.90
2020,04,23,08,29,9.90
2020,04,23,08,30,9.90
2020,04,23,08,31,9.90
2020,04,23,08,32,9.90
2020,04,23,08,33,9.90
2020,04,23,08,34,10.00
2020,04,23,08,35,10.00
2020,04,23,08,36,10.10
2020,04,23,08,37,10.10
2020,04,23,08,38,10.10
2020,04,23,08,39,10.20
2020,04,23,08,40,10.20
2020,04,23,08,41,10.30
2020,04,23,08,42,10.30
2020,04,23,08,43,10.30
2020,04,23,08,44,10.40
2020,04,23,08,45,10.40
2020,04,23,08,46,10.40
2020,04,23,08,47,10.40
2020,04,23,08,48,10.40
2020,04,23,08,49,10.30
2020,04,23,08,50,10.30
2020,04,23,08,51,10.30
2020,04,23,08,52,10.30
2020,04,23,08,53,10.20
2020,04,23,08,54,10.20
2020,04,23,08,55,10.20
2020,04,23,08,56,10.20
2020,04,23,08,57,10.20
2020,04,23,08,58,10.20
2020,04,23,08,59,10.20
2020,04,23,09,00,10.10
2020,04,23,09,01,10.10
2020,04,23,09,02,10.10
2020,04,23,09,03,10.10
2020,04,23,09,04,10.10
2020,04,23,09,05,10.10
2020,04,23,09,06,10.10
2020,04,23,09,07,10.10
2020,04,23,09,08,10.20
2020,04,23,09,09,10.20
2020,04,23,09,10,10.20
2020,04,23,09,11,10.20
2020,04,23,09,12,10.20
2020,04,23,09,13,10.20
2020,04,23,09,14,10.20
2020,04,23,09,15,10.20
2020,04,23,09,16,10.20
2020,04,23,09,17,10.30
2020,04,23,09,18,10.30
2020,04,23,09,19,10.30
2020,04,23,09,20,10.40
2020,04,23,09,21,10.40
2020,04,23,09,22,10.40
2020,04,23,09,23,10.50
2020,04,23,09,24,10.50
2020,04,23,09,25,10.60
2020,04,23,09,26,10.60
2020,04,23,09,27,10.60
2020,04,23,09,28,10.60
2020,04,23,09,29,10.60
2020,04,23,09,30,10.60
2020,04,23,09,31,10.60
2020,04,23,09,32,10.70
2020,04,23,09,33,10.60
2020,04,23,09,34,10.70
2020,04,23,09,35,10.70
2020,04,23,09,36,10.70
2020,04,23,09,37,10.70
2020,04,23,09,38,10.80
2020,04,23,09,39,10.80
2020,04,23,09,40,10.80
2020,04,23,09,41,10.90
2020,04,23,09,42,10.90
2020,04,23,09,43,10.90
2020,04,23,09,44,10.90
2020,04,23,09,45,10.90
2020,04,23,09,46,10.90
2020,04,23,09,47,10.90
2020,04,23,09,48,11.00
2020,04,23,09,49,11.00
2020,04,23,09,50,11.10
2020,04,23,09,51,11.20
2020,04,23,09,52,11.20
2020,04,23,09,53,11.20
2020,04,23,09,54,11.30
2020,04,23,09,55,11.30
2020,04,23,09,56,11.30
2020,04,23,09,57,11.30
2020,04,23,09,58,11.30
2020,04,23,09,59,11.30
2020,04,23,10,00,11.30
2020,04,23,10,01,11.40
2020,04,23,10,02,11.40
2020,04,23,10,03,11.40
2020,04,23,10,04,11.50
2020,04,23,10,05,11.60
2020,04,23,10,06,11.60
2020,04,23,10,07,11.70
2020,04,23,10,08,11.70
2020,04,23,10,09,11.80
2020,04,23,10,10,11.80
2020,04,23,10,11,11.70
2020,04,23,10,12,11.70
2020,04,23,10,13,11.70
2020,04,23,10,14,11.70
2020,04,23,10,15,11.70
2020,04,23,10,16,11.70
2020,04,23,10,17,11.70
2020,04,23,10,18,11.80
2020,04,23,10,19,11.90
2020,04,23,10,20,11.90
2020,04,23,10,21,12.00
2020,04,23,10,22,12.00
2020,04,23,10,23,12.00
2020,04,23,10,24,12.10
2020,04,23,10,25,12.10
2020,04,23,10,26,12.10
2020,04,23,10,27,12.10
2020,04,23,10,28,12.10
2020,04,23,10,29,12.10
2020,04,23,10,30,12.10
2020,04,23,10,31,12.10
2020,04,23,10,32,12.20
2020,04,23,10,33,12.20
2020,04,23,10,34,12.20
2020,04,23,10,35,12.20
2020,04,23,10,36,12.30
2020,04,23,10,37,12.30
2020,04,23,10,38,12.40
2020,04,23,10,39,12.40
2020,04,23,10,40,12.50
2020,04,23,10,41,12.60
2020,04,23,10,42,12.60
2020,04,23,10,43,12.60
2020,04,23,10,44,12.60
2020,04,23,10,45,12.60
2020,04,23,10,46,12.60
2020,04,23,10,47,12.70
2020,04,23,10,48,12.70
2020,04,23,10,49,12.70
2020,04,23,10,50,12.70
2020,04,23,10,51,12.80
2020,04,23,10,52,12.80
2020,04,23,10,53,12.80
2020,04,23,10,54,12.80
2020,04,23,10,55,12.80
2020,04,23,10,56,12.80
2020,04,23,10,57,12.80
2020,04,23,10,58,12.80
2020,04,23,10,59,12.80
2020,04,23,11,00,12.80
2020,04,23,11,01,12.90
2020,04,23,11,02,12.90
2020,04,23,11,03,12.90
2020,04,23,11,04,12.90
2020,04,23,11,05,12.90
2020,04,23,11,06,12.90
2020,04,23,11,07,12.90
2020,04,23,11,08,12.90
2020,04,23,11,09,12.90
2020,04,23,11,10,12.90
2020,04,23,11,11,12.90
2020,04,23,11,12,12.90
2020,04,23,11,13,13.00
2020,04,23,11,14,13.00
2020,04,23,11,15,13.00
2020,04,23,11,16,13.00
2020,04,23,11,17,13.00
2020,04,23,11,18,13.00
2020,04,23,11,19,13.00
2020,04,23,11,20,13.00
2020,04,23,11,21,13.00
2020,04,23,11,22,13.00
2020,04,23,11,23,13.00
2020,04,23,11,24,13.00
2020,04,23,11,25,12.90
2020,04,23,11,26,12.90
2020,04,23,11,27,12.90
2020,04,23,11,28,12.80
2020,04,23,11,29,12.80
2020,04,23,11,30,12.80
2020,04,23,11,31,12.80
2020,04,23,11,32,12.70
2020,04,23,11,33,12.70
2020,04,23,11,34,12.70
2020,04,23,11,35,12.70
2020,04,23,11,36,12.60
2020,04,23,11,37,12.60
2020,04,23,11,38,12.60
2020,04,23,11,39,12.60
2020,04,23,11,40,12.50
2020,04,23,11,41,12.40
2020,04,23,11,42,12.40
2020,04,23,11,43,12.40
2020,04,23,11,44,12.40
2020,04,23,11,45,12.40
2020,04,23,11,46,12.40
2020,04,23,11,47,12.40
2020,04,23,11,48,12.40
2020,04,23,11,49,12.40
2020,04,23,11,50,12.30
2020,04,23,11,51,12.30
2020,04,23,11,52,12.30
2020,04,23,11,53,12.30
2020,04,23,11,54,12.30
2020,04,23,11,55,12.30
2020,04,23,11,56,12.20
2020,04,23,11,57,12.20
2020,04,23,11,58,12.20
2020,04,23,11,59,12.20
2020,04,23,12,00,12.20
2020,04,23,12,01,12.20
2020,04,23,12,02,12.20
2020,04,23,12,03,12.20
2020,04,23,12,04,12.20
2020,04,23,12,05,12.10
2020,04,23,12,06,12.10
2020,04,23,12,07,12.10
2020,04,23,12,08,12.10
2020,04,23,12,09,12.10
2020,04,23,12,10,12.10
2020,04,23,12,11,12.10
2020,04,23,12,12,12.10
2020,04,23,12,13,12.10
2020,04,23,12,14,12.10
2020,04,23,12,15,12.10
2020,04,23,12,16,12.20
2020,04,23,12,17,12.20
2020,04,23,12,18,12.30
2020,04,23,12,19,12.30
2020,04,23,12,20,12.40
2020,04,23,12,21,12.40
2020,04,23,12,22,12.40
2020,04,23,12,23,12.40
2020,04,23,12,24,12.40
2020,04,23,12,25,12.40
2020,04,23,12,26,12.40
2020,04,23,12,27,12.40
2020,04,23,12,28,12.40
2020,04,23,12,29,12.50
2020,04,23,12,30,12.50
2020,04,23,12,31,12.50
2020,04,23,12,32,12.50
2020,04,23,12,33,12.50
2020,04,23,12,34,12.60
2020,04,23,12,35,12.60
2020,04,23,12,36,12.60
2020,04,23,12,37,12.70
2020,04,23,12,38,12.70
2020,04,23,12,39,12.70
2020,04,23,12,40,12.80
2020,04,23,12,41,12.80
2020,04,23,12,42,12.80
2020,04,23,12,43,12.80
2020,04,23,12,44,12.80
2020,04,23,12,45,12.80
2020,04,23,12,46,12.80
2020,04,23,12,47,12.80
2020,04,23,12,48,12.80
2020,04,23,12,49,12.80
2020,04,23,12,50,12.70
2020,04,23,12,51,12.70
2020,04,23,12,52,12.70
2020,04,23,12,53,12.60
2020,04,23,12,54,12.60
2020,04,23,12,55,12.60
2020,04,23,12,56,12.50
2020,04,23,12,57,12.50
2020,04,23,12,58,12.50
2020,04,23,12,59,12.50
2020,04,23,13,00,12.50
2020,04,23,13,01,12.50
2020,04,23,13,02,12.60
2020,04,23,13,03,12.60
2020,04,23,13,04,12.60
2020,04,23,13,05,12.60
2020,04,23,13,06,12.60
2020,04,23,13,07,12.60
2020,04,23,13,08,12.70
2020,04,23,13,09,12.70
2020,04,23,13,10,12.80
2020,04,23,13,11,12.90
2020,04,23,13,12,12.90
2020,04,23,13,13,12.90
2020,04,23,13,14,12.80
2020,04,23,13,15,12.80
2020,04,23,13,16,12.80
2020,04,23,13,17,12.80
2020,04,23,13,18,12.80
2020,04,23,13,19,12.90
2020,04,23,13,20,12.90
2020,04,23,13,21,13.00
2020,04,23,13,22,13.00
2020,04,23,13,23,13.00
2020,04,23,13,24,13.00
2020,04,23,13,25,13.00
2020,04,23,13,26,13.00
2020,04,23,13,27,13.10
2020,04,23,13,28,13.10
2020,04,23,13,29,13.10
2020,04,23,13,30,13.10
2020,04,23,13,31,13.20
2020,04,23,13,32,13.20
2020,04,23,13,33,13.20
2020,04,23,13,34,13.30
2020,04,23,13,35,13.30
2020,04,23,13,36,13.30
2020,04,23,13,37,13.30
2020,04,23,13,38,13.30
2020,04,23,13,39,13.30
2020,04,23,13,40,13.20
2020,04,23,13,41,13.20
2020,04,23,13,42,13.20
2020,04,23,13,43,13.20
2020,04,23,13,44,13.20
2020,04,23,13,45,13.20
2020,04,23,13,46,13.20
2020,04,23,13,47,13.20
2020,04,23,13,48,13.10
2020,04,23,13,49,13.10
2020,04,23,13,50,13.10
2020,04,23,13,51,13.10
2020,04,23,13,52,13.10
2020,04,23,13,53,13.10
2020,04,23,13,54,13.10
2020,04,23,13,55,13.10
2020,04,23,13,56,13.00
2020,04,23,13,57,13.00
2020,04,23,13,58,13.00
2020,04,23,13,59,13.00
2020,04,23,14,00,13.00
2020,04,23,14,01,13.00
2020,04,23,14,02,13.00
2020,04,23,14,03,13.00
2020,04,23,14,04,13.10
2020,04,23,14,05,13.10
2020,04,23,14,06,13.10
2020,04,23,14,07,13.10
2020,04,23,14,08,13.10
2020,04,23,14,09,13.10
2020,04,23,14,10,13.10
2020,04,23,14,11,13.10
2020,04,23,14,12,13.10
2020,04,23,14,13,13.10
2020,04,23,14,14,13.20
2020,04,23,14,15,13.20
2020,04,23,14,16,13.20
2020,04,23,14,17,13.20
2020,04,23,14,18,13.20
2020,04,23,14,19,13.30
2020,04,23,14,20,13.30
2020,04,23,14,21,13.30
2020,04,23,14,22,13.30
2020,04,23,14,23,13.30
2020,04,23,14,24,13.30
2020,04,23,14,25,13.30
2020,04,23,14,26,13.30
2020,04,23,14,27,13.30
2020,04,23,14,28,13.40
2020,04,23,14,29,13.40
2020,04,23,14,30,13.50
2020,04,23,14,31,13.50
2020,04,23,14,32,13.60
2020,04,23,14,33,13.60
2020,04,23,14,34,13.60
2020,04,23,14,35,13.50
2020,04,23,14,36,13.50
2020,04,23,14,37,13.40
2020,04,23,14,38,13.40
2020,04,23,14,39,13.30
2020,04,23,14,40,13.30
2020,04,23,14,41,13.30
2020,04,23,14,42,13.30
2020,04,23,14,43,13.30
2020,04,23,14,44,13.30
2020,04,23,14,45,13.30
2020,04,23,14,46,13.30
2020,04,23,14,47,13.30
2020,04,23,14,48,13.30
2020,04,23,14,49,13.30
2020,04,23,14,50,13.30
2020,04,23,14,51,13.30
2020,04,23,14,52,13.30
2020,04,23,14,53,13.30
2020,04,23,14,54,13.40
2020,04,23,14,55,13.40
2020,04,23,14,56,13.30
2020,04,23,14,57,13.30
2020,04,23,14,58,13.30
2020,04,23,14,59,13.30
2020,04,23,15,00,13.30
2020,04,23,15,01,13.30
2020,04,23,15,02,13.30
2020,04,23,15,03,13.30
2020,04,23,15,04,13.30
2020,04,23,15,05,13.30
2020,04,23,15,06,13.30
2020,04,23,15,07,13.20
2020,04,23,15,08,13.20
2020,04,23,15,09,13.20
2020,04,23,15,10,13.20
2020,04,23,15,11,13.20
2020,04,23,15,12,13.20
2020,04,23,15,13,13.30
2020,04,23,15,14,13.30
2020,04,23,15,15,13.30
2020,04,23,15,16,13.30
2020,04,23,15,17,13.30
2020,04,23,15,18,13.30
2020,04,23,15,19,13.30
2020,04,23,15,20,13.40
2020,04,23,15,21,13.40
2020,04,23,15,22,13.40
2020,04,23,15,23,13.50
2020,04,23,15,24,13.50
2020,04,23,15,25,13.60
2020,04,23,15,26,13.60
2020,04,23,15,27,13.60
2020,04,23,15,28,13.60
2020,04,23,15,29,13.60
2020,04,23,15,30,13.60
2020,04,23,15,31,13.60
2020,04,23,15,32,13.60
2020,04,23,15,33,13.60
2020,04,23,15,34,13.60
2020,04,23,15,35,13.60
2020,04,23,15,36,13.60
2020,04,23,15,37,13.60
2020,04,23,15,38,13.60
2020,04,23,15,39,13.70
2020,04,23,15,40,13.70
2020,04,23,15,41,13.70
2020,04,23,15,42,13.70
2020,04,23,15,43,13.70
2020,04,23,15,44,13.70
2020,04,23,15,45,13.70
2020,04,23,15,46,13.70
2020,04,23,15,47,13.70
2020,04,23,15,48,13.70
2020,04,23,15,49,13.70
2020,04,23,15,50,13.70
2020,04,23,15,51,13.70
2020,04,23,15,52,13.70
2020,04,23,15,53,13.70
2020,04,23,15,54,13.80
2020,04,23,15,55,13.80
2020,04,23,15,56,13.80
2020,04,23,15,57,13.90
2020,04,23,15,58,13.90
2020,04,23,15,59,14.00
2020,04,23,16,00,14.00
2020,04,23,16,01,14.10
2020,04,23,16,02,14.10
2020,04,23,16,03,14.10
2020,04,23,16,04,14.10
2020,04,23,16,05,14.20
2020,04,23,16,06,14.20
2020,04,23,16,07,14.20
2020,04,23,16,08,14.30
2020,04,23,16,09,14.30
2020,04,23,16,10,14.30
2020,04,23,16,11,14.30
2020,04,23,16,12,14.30
2020,04,23,16,13,14.30
2020,04,23,16,14,14.30
2020,04,23,16,15,14.30
2020,04,23,16,16,14.30
2020,04,23,16,17,14.40
2020,04,23,16,18,14.40
2020,04,23,16,19,14.40
2020,04,23,16,20,14.40
2020,04,23,16,21,14.40
2020,04,23,16,22,14.40
2020,04,23,16,23,14.40
2020,04,23,16,24,14.40
2020,04,23,16,25,14.40
2020,04,23,16,26,14.40
2020,04,23,16,27,14.40
2020,04,23,16,28,14.50
2020,04,23,16,29,14.50
2020,04,23,16,30,14.50
2020,04,23,16,31,14.60
2020,04,23,16,32,14.60
2020,04,23,16,33,14.70
2020,04,23,16,34,14.70
2020,04,23,16,35,14.70
2020,04,23,16,36,14.80
2020,04,23,16,37,14.80
2020,04,23,16,38,14.90
2020,04,23,16,39,14.90
2020,04,23,16,40,14.90
2020,04,23,16,41,15.00
2020,04,23,16,42,15.00
2020,04,23,16,43,15.00
2020,04,23,16,44,15.00
2020,04,23,16,45,15.00
2020,04,23,16,46,15.00
2020,04,23,16,47,15.00
2020,04,23,16,48,15.00
2020,04,23,16,49,15.00
2020,04,23,16,50,15.00
2020,04,23,16,51,15.00
2020,04,23,16,52,15.00
2020,04,23,16,53,14.90
2020,04,23,16,54,14.90
2020,04,23,16,55,14.90
2020,04,23,16,56,14.90
2020,04,23,16,57,14.90
2020,04,23,16,58,14.90
2020,04,23,16,59,14.90
2020,04,23,17,00,14.80
2020,04,23,17,01,14.80
2020,04,23,17,02,14.70
2020,04,23,17,03,14.60
2020,04,23,17,04,14.60
2020,04,23,17,05,14.60
2020,04,23,17,06,14.50
2020,04,23,17,07,14.50
2020,04,23,17,08,14.50
2020,04,23,17,09,14.50
2020,04,23,17,10,14.60
2020,04,23,17,11,14.60
2020,04,23,17,12,14.60
2020,04,23,17,13,14.70
2020,04,23,17,14,14.70
2020,04,23,17,15,14.80
2020,04,23,17,16,14.90
2020,04,23,17,17,14.90
2020,04,23,17,18,14.90
2020,04,23,17,19,14.90
2020,04,23,17,20,14.90
2020,04,23,17,21,14.90
2020,04,23,17,22,14.90
2020,04,23,17,23,14.80
2020,04,23,17,24,14.80
2020,04,23,17,25,14.80
2020,04,23,17,26,14.80
2020,04,23,17,27,14.80
2020,04,23,17,28,14.80
2020,04,23,17,29,14.90
2020,04,23,17,30,14.90
2020,04,23,17,31,14.90
2020,04,23,17,32,14.90
2020,04,23,17,33,15.00
2020,04,23,17,34,15.00
2020,04,23,17,35,15.00
2020,04,23,17,36,15.00
2020,04,23,17,37,15.00
2020,04,23,17,38,14.90
2020,04,23,17,39,14.90
2020,04,23,17,40,14.90
2020,04,23,17,41,14.90